Showing default

IRIDE-MS2-HEO-14, 68986

Orbit data source: Space-Track

IRIDE-MS2-HEO-14, 68986 is an Italian payload satellite in SSO that was launched on Sun, 03 May 2026 UTC via an FALCON 9 launch vehicle from the Air Force Western Test Range (AFWTR). Payload-class satellites include a variety of spacecraft equipped with specific instruments for various scientific and technological missions. These include communications satellites like Starlink; space stations such as the ISS; scientific satellites like the Hubble; Earth observation satellites from companies like Planet Labs, Umbra, and HawkEye 360; GPS; miniature CubeSats for education and research; and military/defense satellites.

Loading next visibility...
Identifier
68986, 2026-100G
Orbit
SSO
Country
Flag of ITIT
Related business
None
Manufacturer
Unknown
Mission
Operational spacecraft
Bus & Motor
Unknown
Mass
Unknown
Launch date (UTC)
2026-05-03 (2 months ago)
Launch vehicle
FALCON 9
Launch site
Air Force Western Test Range (AFWTR)
Object type
Payload
Rocket body
Debris
Shape & HBR
Unknown shape, 14.5 m
Radar Cross Section
Medium (>0.1 m² and <1 m²)

Expand to show TLE details & history
Last TLE update: 16 hours ago

TLE from 16 hours ago
0 IRIDE-MS2-HEO-14
1 68986U 26100G   26175.18201640  .00001280  00000-0  13224-3 0  9995
2 68986  97.7358  72.5133 0003235  93.3576 266.8013 14.91841299  7747
Epoch: 2026-06-24T04:22Z
TLE epoch observation values (Epoch: 2026-06-24T04:22:06.216Z)
Latitude
-0.00005°
Longitude
94.6445°
Altitude
595.363 km
Speed
7.562 km/s
True Right ascension
04h 50m 03s
True Declination
0° 00' 00"
Sunlit
Object was in daylight at epoch
Visualization orbit readout
Latitude
Unknown
Longitude
Unknown
Altitude
Unknown
Speed
Unknown
Apparent Right ascension
Unknown
Apparent Declination
Unknown
Sunlit
N/A
Visualization observer readout
Local Sidereal Time
07:34:56
Azimuth
Unknown
Elevation
Unknown
Doppler factor
Unknown
Orbital elements
Apogee altitude
591.466 km
Perigee altitude
586.958 km
Semi-major axis
6,967.349 km
Eccentricity
0.00032
Inclination
97.7358°
RAAN
72.5133°
Arg. of periapsis
93.3576°
True anomaly
266.76429°
Mean anomaly
266.8013°
Eccentric anomaly
266.78279°
Mean motion
3.732 °/min
Orbital period
96.46 mins
BSTAR
0.00013224
Loading maneuver chart data...
Computing Atmospheric mass density...
Loading historical data...
Loading historical data...
Loading historical data...
Loading historical data...
Loading historical data...
Loading historical data...
Loading historical data...

Documentation

Showing up to 5 results
|